Change the Weather History Date:

Saturday, January 28, 2012

  Actual Average Record
Temperature  
Mean Temperature 41 °F 46 °F  
Max Temperature 49 °F 58 °F 82 °F (1970)
Min Temperature 33 °F 34 °F 10 °F (1895)
Degree Days  
Heating Degree Days 24 19  
Month to date heating degree days 446 567  
Since 1 July heating degree days 1471 1612  
Cooling Degree Days 0 0  
Month to date cooling degree days 0 0  
Year to date cooling degree days 0 0  
Moisture  
Dew Point 27 °F    
Average Humidity 54    
Maximum Humidity 76    
Minimum Humidity 31    
Precipitation  
Precipitation 0.00 in 0.03 in 2.64 in (2010)
Month to date precipitation 2.77 0.90  
Year to date precipitation 2.77 0.90  
Sea Level Pressure  
Sea Level Pressure 30.43 in    
Wind  
Wind Speed 6 mph (NNE)    
Max Wind Speed 18 mph    
Max Gust Speed 24 mph    
Visibility 10 miles    
Events      
T = Trace of Precipitation, MM = Missing Value Source: NWS Daily Summary

Daily Weather History Graph

Daily Weather History Graph

Search for Another Location

Airport or City:

Trip Planner

Search our weather history database for the weather conditions in past years. The results will help you decide how hot, cold, wet, or windy it might be!

Date:

Astronomy

Jan. 28, 2012 Rise Set
Actual Time 7:35 AM CST 6:07 PM CST
Civil Twilight 7:09 AM CST 6:33 PM CST
Nautical Twilight 6:40 AM CST 7:03 PM CST
Astronomical Twilight 6:11 AM CST 7:32 PM CST
Moon 10:21 AM CST (1/28) 11:33 PM CST (1/28)
Length of Visible Light 11h 24m
Length of Day
10h 32m
Waxing Crescent, 28% of the Moon is Illuminated
Jan 28
Waxing Crescent
Jan 30
First Quarter
Feb 7
Full
Feb 14
Last Quarter
Feb 21
New

Hourly Weather History & Observations

Time (CST) Temp. Windchill Dew Point Humidity Pressure Visibility Wind Dir Wind Speed Gust Speed Precip Events Conditions
12:52 AM 45.0 °F 40.1 °F 30.0 °F 56% 30.27 in 10.0 mi NNE 9.2 mph - N/A   Clear
1:52 AM 43.0 °F 39.5 °F 30.9 °F 62% 30.30 in 10.0 mi NNE 5.8 mph - N/A   Clear
2:52 AM 43.0 °F 35.4 °F 28.9 °F 58% 30.31 in 10.0 mi NNE 16.1 mph 24.2 mph N/A   Partly Cloudy
3:52 AM 41.0 °F 34.7 °F 30.0 °F 65% 30.33 in 10.0 mi NNE 10.4 mph - N/A   Partly Cloudy
4:52 AM 39.0 °F 33.4 °F 30.0 °F 70% 30.36 in 10.0 mi NNE 8.1 mph - N/A   Partly Cloudy
5:52 AM 37.9 °F 33.5 °F 30.0 °F 73% 30.39 in 10.0 mi NNE 5.8 mph - N/A   Scattered Clouds
6:52 AM 37.0 °F 33.3 °F 28.9 °F 73% 30.42 in 10.0 mi North 4.6 mph - N/A   Clear
7:52 AM 36.0 °F 31.1 °F 28.9 °F 76% 30.45 in 10.0 mi North 5.8 mph - N/A   Clear
8:52 AM 37.0 °F 31.6 °F 30.0 °F 76% 30.49 in 10.0 mi North 6.9 mph - N/A   Partly Cloudy
9:52 AM 39.0 °F 33.4 °F 30.0 °F 70% 30.51 in 10.0 mi North 8.1 mph - N/A   Clear
10:52 AM 43.0 °F 38.2 °F 28.9 °F 58% 30.51 in 10.0 mi NNE 8.1 mph - N/A   Clear
11:52 AM 46.0 °F 42.5 °F 21.9 °F 39% 30.51 in 10.0 mi ENE 6.9 mph - N/A   Clear
12:52 PM 46.9 °F - 21.9 °F 37% 30.47 in 10.0 mi ENE 5.8 mph - N/A   Partly Cloudy
1:52 PM 46.9 °F - 19.9 °F 34% 30.45 in 10.0 mi NE 6.9 mph - N/A   Mostly Cloudy
2:52 PM 46.9 °F - 23.0 °F 39% 30.45 in 10.0 mi North 6.9 mph - N/A   Overcast
3:52 PM 48.0 °F - 23.0 °F 37% 30.45 in 10.0 mi NNE 6.9 mph - N/A   Overcast
4:52 PM 48.9 °F - 19.9 °F 32% 30.45 in 10.0 mi NNE 5.8 mph - N/A   Scattered Clouds
5:52 PM 48.0 °F - 21.9 °F 36% 30.45 in 10.0 mi North 3.5 mph - N/A   Overcast
6:52 PM 46.0 °F - 25.0 °F 44% 30.45 in 10.0 mi Calm Calm - N/A   Overcast
7:52 PM 42.1 °F 39.2 °F 27.0 °F 55% 30.45 in 10.0 mi SSE 4.6 mph - N/A   Clear
8:52 PM 37.0 °F 32.4 °F 28.0 °F 70% 30.46 in 10.0 mi South 5.8 mph - N/A   Clear
9:52 PM 35.1 °F 32.2 °F 28.0 °F 76% 30.45 in 10.0 mi SSW 3.5 mph - N/A   Clear
10:52 PM 33.1 °F 27.7 °F 27.0 °F 78% 30.45 in 10.0 mi South 5.8 mph - N/A   Clear
11:52 PM 35.1 °F - 26.1 °F 70% 30.45 in 10.0 mi Calm Calm - N/A   Clear